Search your local weather  

 

Hazardous Weather Conditions

No active alerts for HOUSTON, TEXAS

Current Conditions: HOUSTON, TEXAS

Fair


45.0 F

Last Updated on Dec 11 2019, 8:53 pm CST
Humidity: 74%
Wind Speed: NE 4.6 mph
Barometer 30.42 in
Dewpoint: 37.0 F
Visibility: 10.00 mi
Precip: --
Heat Index: NA
Wind Chill: 43 F
Current conditions at:

Houston, Hooks Memorial Airport, TX (KDWH)

Lat: 30.0675 Lon: -95.55611

Local Radar Image active severe weather and emergency alerts image image weather storm and storm spotter reports image weather observation monitoring service image
Local
Radar
Active
Alerts
Storm Reports Weather
Monitoring

5 Day Forecast for HOUSTON, TEXAS (77002)

Wednesday

Mostly Cloudy

High 57 °F
Wednesday
Night
Partly Cloudy

Low 43 °F
Thursday

Mostly Cloudy

High 61 °F
Thursday
Night
Mostly Cloudy

Low 50 °F
Friday

Mostly Cloudy

High 70 °F
Friday
Night
Partly Cloudy

Low 51 °F
Saturday

Clear

High 70 °F
Saturday
Night
Mostly Clear

Low 55 °F
Sunday

Slight Chance of Rain
High 75 °F

Sign-up For Email & Text Message Weather Alert Notification Services



Advertise Here

Observation History for HOUSTON, TEXAS


Time Wind
(mph)
Vis
(mi)
Weather Precip (in) Temperature (F) Relative
Humidity
Wind
Chill
(°F)
Heat
Index
(°F)
Pressure
Air Dwpt altimeter
(in)
sea level
(mb)
8:53 pm CST NE 4.6 10.00 Fair -- 45.0 37.0 74% 43 NA 30.42 1030.1
7:53 pm CST NE 4.6 10.00 Fair -- 46.0 37.0 71% 44 NA 30.42 1030.0
6:53 pm CST N 5.8 10.00 Fair -- 48.0 36.0 63% 45 NA 30.42 1029.9
5:53 pm CST NE 4.6 10.00 Fair -- 51.0 36.0 56% 50 NA 30.41 1029.6
4:53 pm CST NE 6.9 10.00 Fair -- 56.0 34.0 44% 54 NA 30.41 1029.6
3:53 pm CST NE 5.8 10.00 Fair -- 58.0 33.1 39% 57 NA 30.41 1029.8
2:53 pm CST NE 6.9 10.00 Fair -- 58.0 32.0 38% 57 NA 30.43 1030.3
1:53 pm CST NE 6.9 10.00 Fair -- 57.0 33.1 41% 56 NA 30.44 1030.6
12:53 pm CST E 9.2 10.00 Fair -- 56.0 34.0 44% 54 NA 30.46 1031.6
11:53 am CST NE 6.9 10.00 Fair -- 53.0 34.0 48% 51 NA 30.50 1032.8
10:53 am CST NE 4.6 10.00 Fair -- 49.0 35.1 59% 47 NA 30.53 1033.8
9:53 am CST N 8.1 10.00 A Few Clouds -- 46.0 36.0 68% 42 NA 30.54 1034.1
8:53 am CST N 9.2 10.00 Partly Cloudy -- 44.0 35.1 71% 39 NA 30.52 1033.6
7:53 am CST N 6.9 10.00 Overcast -- 43.0 35.1 74% 39 NA 30.51 1033.1
6:53 am CST NE 9.2 10.00 Overcast -- 43.0 36.0 76% 38 NA 30.49 1032.4
5:53 am CST NE 10.4 G 17.3 10.00 Overcast -- 43.0 36.0 76% 37 NA 30.46 1031.5
4:53 am CST N 10.4 10.00 Overcast -- 43.0 37.0 80% 37 NA 30.44 1030.9
3:53 am CST N 5.8 10.00 Overcast -- 43.0 37.0 80% 39 NA 30.44 1030.7
2:53 am CST NE 9.2 10.00 Overcast -- 44.0 37.9 79% 39 NA 30.43 1030.2
1:53 am CST NE 13.8 G 18.4 10.00 Overcast -- 44.0 37.9 79% 37 NA 30.42 1030.0
12:53 am CST N 10.4 10.00 Overcast -- 45.0 39.0 80% 40 NA 30.42 1030.0
11:53 pm CST N 10.4 10.00 Overcast -- 46.0 39.9 79% 41 NA 30.41 1029.6
10:53 pm CST N 10.4 G 18.4 10.00 Overcast -- 46.0 39.9 79% 41 NA 30.40 1029.4
9:53 pm CST N 10.4 10.00 Overcast -- 46.0 41.0 83% 41 NA 30.40 1029.3

Regional Weather Observation

John Dunn Helistop, TX (KMCJ)

Fair
50.0 F

Houston, Houston Hobby Airport, TX (KHOU)

A Few Clouds
51.0 F

Houston Southwest Airport, TX (KAXH)

Fair
47.0 F

Conroe, Montgomery County Airport, TX (KCXO)

Fair
37.0 F

Houston, Pearland Regional Airport, TX (KLVJ)

Fair
50.0 F

Cleveland, TX (K6R3)

Fair
39.0 F

Advertise Here


Advertise Here